Location: São Paulo
(23.5507°S, 46.6334°W)
Time: 18:50:46
(UTC-03:00)

Vanguard 2 Rocket - Pass Details

Date: 20 February 2026
Orbit: 553 x 3286 km, 32.9° (Epoch: 11 March)

Event Time Altitude Azimuth Distance (km) Brightness Sun altitude
Exits shadow 03:28:59 34° 218° (SW) 1,924 8.4 -32.4°
Maximum altitude 03:32:07 49° 165° (SSE) 1,790 8.5 -31.8°
Drops below altitude 10° 03:43:51 10° 93° (E) 4,785 11.3 -29.5°
Sets 03:48:50 0° 88° (E) 6,232 12.0 -28.5°
